Regional Weather Roundup
Issued by NWS Sterling, VA

Home | Current Version | Previous Version | Text Only | Print | Product List | Glossary On
Versions: 1 2 3 4 5 6 7 8 9 10 11 12 13 14 15 16 17 18 19 20 21 22 23 24 25 26 27 28 29 30 31 32 33 34 35 36 37 38 39 40 41 42 43 44 45 46 47 48 49 50
000
ASUS41 KLWX 251610
RWRLWX

REGIONAL WEATHER ROUNDUP
NATIONAL WEATHER SERVICE BALTIMORE MD/WASHINGTON DC
1100 AM EST THU DEC 25 2014

Note: "FAIR" indicates few or no clouds below 12,000 feet
with no significant weather and/or obstructions to visibility.
 TC=TEMPERATURE CELSIUS

 * =Non NWS site. Station does not report precipitation (e.g. rain,
    snow, etc.), thunder, or fog.

DCZ001-MDZ009-015-VAZ040>042-051-053>054-251700-
WASHINGTON METRO

CITY           SKY/WX    TMP DP  RH WIND       PRES   REMARKS
WASHINGTON NAT PTSUNNY   54  30  40 W17G28    29.94R
DULLES         PTSUNNY   49  32  52 W9G17     29.94R
ANDREWS AFB    MOSUNNY   53  32  45 W16G24    29.92R
FT BELVOIR     PTSUNNY   52  31  44 NW20G29   29.95R
QUANTICO       PTSUNNY   55  32  41 NW16      29.96R
COLLEGE PARK*  MOSUNNY   52  32  46 W9G21     29.93R
LEESBURG*      PTSUNNY   48  34  57 W12G18    29.94R
GAITHERSBURG*  PTSUNNY   48  30  49 W22G31    29.94S

$$

MDZ006>007-011-014-251700-
BALTIMORE METRO

CITY           SKY/WX    TMP DP  RH WIND       PRES   REMARKS
BWI AIRPORT    MOSUNNY   51  31  46 W18G28    29.90R
MD SCIENCE CTR   N/A     52  30  43 MISG      29.93R
MARTIN STATE   MOSUNNY   54  34  47 W23       29.92R
ANNAPOLIS      PTSUNNY   51  29  42 W13G25    29.92R
FORT MEADE*    MOSUNNY   50  32  50 W20G32    29.93R

$$

MDZ012-015-019>023-251700-
MARYLAND EASTERN SHORE

CITY           SKY/WX    TMP DP  RH WIND       PRES   REMARKS
OCEAN CITY     CLOUDY    50  34  54 NW17G30   29.90R
SALISBURY      CLOUDY    52  34  50 NW13G22   29.91R
BAY BRIDGE AP*   N/A     50  32  50 NW18G29   29.92R
CAMBRIDGE*     SUNNY     54  34  47 NW14G20   29.91R
EASTON*        MOSUNNY   54  36  50 NW13G20   29.95R

$$

MDZ017>025-251700-
SOUTHERN MARYLAND

CITY           SKY/WX    TMP DP  RH WIND       PRES   REMARKS
PATUXENT RIVER SUNNY     53  38  56 NW10      29.92R
ST INIGOES     SUNNY     54  40  59 W9        29.93R
LEONARDTOWN*   SUNNY     52  34  50 W13G22    29.94R

$$

MDZ003>005-251700-
NORTH CENTRAL MARYLAND

CITY           SKY/WX    TMP DP  RH WIND       PRES   REMARKS
FREDERICK*     PTSUNNY   52  28  40 W17G30    29.94R
HAGERSTOWN APT CLOUDY    50  32  50 W17       29.89R
WESTMINSTER*   CLOUDY    46  34  61 W21G26    29.89R

$$

MDZ501>502-251700-
WESTERN MARYLAND

CITY           SKY/WX    TMP DP  RH WIND       PRES   REMARKS
OAKLAND*       CLOUDY    32 N/A N/A W16G38    29.89R WCI  21
CUMBERLAND*    PTSUNNY   46  32  57 W13G24    29.99R

$$

VAZ025>031-251700-
SHENANDOAH VALLEY

CITY           SKY/WX    TMP DP  RH WIND       PRES   REMARKS
WINCHESTER*    CLOUDY    50  27  40 W12G22    29.94R
FRONT ROYAL*   PTSUNNY   46  30  53 W10G24    29.94R
LURAY*         FAIR      50  30  46 SW10G35   29.95R
NEW MARKET*    PTSUNNY   47  29  51 W15G23    29.96R
STAUNTON*      PTSUNNY   49  28  44 W14G22    29.99R
WAYNESBORO*    CLOUDY    47  30  51 W8        29.98R

$$

WVZ021-048>050-054>055-251700-
EASTERN WEST VIRGINIA PANHANDLE

CITY           SKY/WX    TMP DP  RH WIND       PRES   REMARKS
MARTINSBURG    CLOUDY    50  30  46 W22G28    29.93R
PETERSBURG*    CLOUDY    46  28  48 SW7       29.99R

$$

VAZ036>039-050-251700-
CENTRAL FOOTHILLS

CITY           SKY/WX    TMP DP  RH WIND       PRES   REMARKS
CHARLOTTESVILL CLOUDY    52  28  39 NW7G21    29.96R
CULPEPER*      MOSUNNY   54  28  37 W9        29.96R
ORANGE*        PTSUNNY   54  32  43 SW12G23   29.98R
GORDONSVILLE*  CLOUDY    52  29  41 NW12G17   29.96R
WARRENTON*     CLOUDY    53  37  53 W13G20    29.95R

$$

VAZ055>057-251700-
NORTH AND CENTRAL PIEDMONT

CITY           SKY/WX    TMP DP  RH WIND       PRES   REMARKS
FREDERICKSBRG* MOSUNNY   54  32  43 W9        29.95R
STAFFORD*      PTSUNNY   51  29  41 NW16G28   30.00R

$$

NCZ024-NYZ072-PAZ021-071-VAZ022-071-251700-
OTHER REGIONAL OBSERVATIONS

CITY           SKY/WX    TMP DP  RH WIND       PRES   REMARKS
NEW YORK CITY  PTSUNNY   50  28  42 W13G26    29.78R
PHILADELPHIA   MOSUNNY   52  33  48 W20G35    29.86R
PITTSBURGH     DRIZZLE   39  34  82 W13G22    29.97R
ROANOKE        PTSUNNY   48  27  44 NW28      30.06R
RICHMOND       MOSUNNY   55  35  47 W14       29.97R
RALEIGH        MOSUNNY   54  35  48 W9G17     30.06R

$$

ANZ530>537-251700-
MARINE OBSERVATIONS

STATION/POSITION TIME  TEMP    WIND        PRES
                       AIR SEA DIR/SP/G
                 (UTC) (F)     (DEG/KT/KT) (MB)
THOMAS PT LIGHT  1600   51 42  300/ 18/ 23 1014.1R
BALT KEY BRIDGE  1600   50     270/ 22/ 30 1012.0S
COVE POINT       1600   51     330/ 15/ 18 1013.0R
LEWISETTA        1600   53 44  310/ 10/ 13 1013.3R
SOLOMONS ISLAND  1600      44                N/A
PINEY POINT      1600          310/ 11/ 12   N/A

$$




USA.gov is the U.S. government's official web portal to all federal, state and local government web resources and services.